Погода в Дегтянке

Россия / Тамбовская область     53°01′36″N   41°12′43″E
темп.,
°C
ветер,
м/с
пор.,
м/с
влажн.,
%
обл.,
%
осадки,
мм/ч
давл.,
гПа
погр.,
м
5 марта, пт
пт500:00−1з51192100 0.2 1001621
03:00−2з51194100 0.3 1001423
06:00−3зсз51095100 0.1 1003365
09:00−4ссз499493 0.3 1006389
12:00−3сз46865 0.0 1009494
15:00−3зсз35862 0.0 1011432
18:00−6зсз239110 0.0 101331
21:00−7з33927 0.0 101533
6 марта, сб
сб600:00−8зсз239376 0.0 101630
03:00−9сз129387 0.0 101721
06:00−9с0092100 0.0 101621
09:00−8всв1191100 0.0 101663
12:00−5вюв0186100 0.0 1016268
15:00−4сз118599 0.1 1015341
18:00−7ссз349599 0.1 101471
21:00−9ссз339599 0.2 101649
7 марта, вс
вс700:00−10зсз349585 0.1 101679
03:00−12з469459 0.1 1016120
06:00−12юз59930 0.0 1016183
09:00−9юз7148812 0.0 1013396
12:00−5юз91580100 0.0 1009930
15:00−3юз101875100 0.0 10051214
18:00−3юз101894100 1.3 10001150
21:00−6зсз81677100 2.9 1001848
8 марта, пн
пн800:00−9зюз6147733 0.0 1003318
03:00−10юз7157917 0.0 1004345
06:00−8юз716792 0.0 1001409
09:00−6юз8159037 0.0 1000823
12:00−4з91384100 0.9 10001272
15:00−7зсз9138097 0.9 10031202
18:00−9з7158396 0.0 1007788
21:00−10з6158548 0.0 1009441
9 марта, вт
вт900:00−12з410900 0.0 1011212
03:00−14з46940 0.0 1012119
06:00−15з349656 0.0 101364
09:00−13сз239478 0.1 1014185
12:00−11ссз3488100 0.0 1014399
15:00−11ссз4687100 0.0 1015559
18:00−12ссз4891100 0.0 1016443
21:00−15сз4109599 0.0 1019252